TimeEDT,TemperatureF,Dew PointF,Humidity,Sea Level PressureIn,VisibilityMPH,Wind Direction,Wind SpeedMPH,Gust SpeedMPH,PrecipitationIn,Events,Conditions,WindDirDegrees,DateUTC
12:53 AM,64.9,61.0,87,29.97,10.0,Calm,Calm,-,N/A,,Partly Cloudy,0,2013-08-01 04:53:00
1:53 AM,64.0,60.1,87,29.95,10.0,Calm,Calm,-,N/A,,Clear,0,2013-08-01 05:53:00
2:53 AM,64.0,60.1,87,29.92,10.0,Calm,Calm,-,N/A,,Clear,0,2013-08-01 06:53:00
3:53 AM,64.0,59.0,84,29.91,10.0,Calm,Calm,-,N/A,,Partly Cloudy,0,2013-08-01 07:53:00
4:53 AM,62.1,59.0,90,29.89,10.0,Calm,Calm,-,N/A,,Partly Cloudy,0,2013-08-01 08:53:00
5:53 AM,63.0,59.0,87,29.88,10.0,Calm,Calm,-,N/A,,Partly Cloudy,0,2013-08-01 09:53:00
6:53 AM,64.0,59.0,84,29.88,10.0,Calm,Calm,-,N/A,,Overcast,0,2013-08-01 10:53:00
7:53 AM,68.0,60.1,76,29.86,10.0,SE,4.6,-,N/A,,Clear,140,2013-08-01 11:53:00
8:53 AM,72.0,62.1,71,29.83,10.0,SSE,9.2,-,N/A,,Clear,160,2013-08-01 12:53:00
9:53 AM,75.0,63.0,66,29.80,10.0,South,12.7,18.4,N/A,,Clear,170,2013-08-01 13:53:00
10:53 AM,77.0,63.0,62,29.77,10.0,SSE,10.4,-,N/A,,Mostly Cloudy,150,2013-08-01 14:53:00
11:53 AM,75.9,62.1,62,29.74,10.0,SSE,9.2,17.3,N/A,,Overcast,160,2013-08-01 15:53:00
12:09 PM,71.6,64.4,78,29.77,1.5,WSW,18.4,29.9,0.11,Rain,Heavy Rain,240,2013-08-01 16:09:00
12:12 PM,69.8,64.4,83,29.78,0.8,WSW,21.9,29.9,0.23,Rain,Heavy Rain,250,2013-08-01 16:12:00
12:21 PM,66.2,62.6,88,29.79,0.8,SW,16.1,27.6,0.36,Rain,Heavy Rain,230,2013-08-01 16:21:00
12:24 PM,66.2,64.4,94,29.78,1.8,SW,15.0,23.0,0.36,Rain,Light Rain,220,2013-08-01 16:24:00
12:26 PM,66.2,64.4,94,29.78,3.0,SW,11.5,20.7,0.36,Rain,Light Rain,220,2013-08-01 16:26:00
12:51 PM,66.2,62.6,88,29.78,10.0,SW,11.5,-,0.37,Rain,Light Rain,220,2013-08-01 16:51:00
12:53 PM,66.9,63.0,87,29.79,10.0,SSW,12.7,20.7,0.37,Rain,Light Rain,210,2013-08-01 16:53:00
1:53 PM,70.0,64.9,84,29.79,10.0,South,5.8,-,0.01,,Mostly Cloudy,180,2013-08-01 17:53:00
2:34 PM,71.6,66.2,83,29.78,10.0,SSW,6.9,-,N/A,,Overcast,210,2013-08-01 18:34:00
2:53 PM,72.0,66.0,81,29.77,10.0,South,4.6,-,N/A,,Mostly Cloudy,190,2013-08-01 18:53:00
3:02 PM,73.4,66.2,78,29.77,10.0,SSW,6.9,-,N/A,,Mostly Cloudy,200,2013-08-01 19:02:00
3:13 PM,71.6,66.2,83,29.77,10.0,South,5.8,-,N/A,,Overcast,190,2013-08-01 19:13:00
3:43 PM,73.4,66.2,78,29.76,10.0,SSW,4.6,-,N/A,,Overcast,200,2013-08-01 19:43:00
3:53 PM,73.0,64.9,76,29.75,10.0,Variable,3.5,-,N/A,,Mostly Cloudy,0,2013-08-01 19:53:00
4:50 PM,69.8,66.2,88,29.77,1.8,WNW,6.9,-,0.08,Rain,Heavy Rain,300,2013-08-01 20:50:00
4:53 PM,69.1,66.9,93,29.77,1.0,NW,8.1,-,0.14,Rain,Heavy Rain,310,2013-08-01 20:53:00
5:02 PM,68.0,66.2,94,29.77,2.0,Calm,Calm,-,0.01,Rain,Light Rain,0,2013-08-01 21:02:00
5:09 PM,68.0,66.2,94,29.76,6.0,Calm,Calm,-,0.02,Rain,Light Rain,0,2013-08-01 21:09:00
5:16 PM,69.8,66.2,88,29.76,6.0,Calm,Calm,-,0.02,Rain-Thunderstorm,Light Thunderstorms and Rain,0,2013-08-01 21:16:00
5:31 PM,69.8,66.2,88,29.76,10.0,Calm,Calm,-,0.03,Rain,Light Rain,0,2013-08-01 21:31:00
5:43 PM,69.8,66.2,88,29.76,10.0,WNW,5.8,-,0.03,,Overcast,300,2013-08-01 21:43:00
5:53 PM,70.0,66.0,87,29.76,10.0,West,8.1,-,0.03,,Overcast,280,2013-08-01 21:53:00
6:09 PM,69.8,66.2,88,29.77,10.0,West,5.8,-,N/A,,Overcast,280,2013-08-01 22:09:00
6:53 PM,72.0,66.0,81,29.77,10.0,WNW,6.9,-,N/A,,Partly Cloudy,290,2013-08-01 22:53:00
7:53 PM,69.1,64.9,87,29.78,10.0,SW,4.6,-,N/A,,Clear,220,2013-08-01 23:53:00
8:53 PM,66.9,64.0,90,29.79,10.0,WSW,5.8,-,N/A,,Clear,240,2013-08-02 00:53:00
9:53 PM,64.9,63.0,93,29.80,10.0,SE,3.5,-,N/A,,Clear,140,2013-08-02 01:53:00
10:18 PM,64.4,62.6,94,29.80,1.8,Calm,Calm,-,N/A,,Clear,0,2013-08-02 02:18:00
10:20 PM,62.6,62.6,100,29.80,1.0,Calm,Calm,-,N/A,,Mist,0,2013-08-02 02:20:00
10:27 PM,62.6,60.8,94,29.80,0.2,Calm,Calm,-,N/A,Fog,Fog,0,2013-08-02 02:27:00
10:53 PM,60.1,59.0,96,29.79,0.2,Calm,Calm,-,N/A,Fog,Fog,0,2013-08-02 02:53:00
11:15 PM,60.8,60.8,100,29.79,1.8,South,3.5,-,N/A,,Partly Cloudy,190,2013-08-02 03:15:00
11:17 PM,60.8,60.8,100,29.79,4.0,SSW,3.5,-,N/A,,Partly Cloudy,200,2013-08-02 03:17:00
11:53 PM,62.1,60.1,93,29.80,8.0,Calm,Calm,-,N/A,,Clear,0,2013-08-02 03:53:00
11:59 PM,60.8,60.8,100,29.80,1.8,Calm,Calm,-,N/A,,Clear,0,2013-08-02 03:59:00